• Join FlightAware (Why Join?)
  • Login
  • US Flag 
05:15AM EDT


 

Airport Tracker/Info


-or-


 

Live Flight TrackerFlight Track Log ✈ DAL8901 ✈ 14-Mar-2012 ✈ KTCL - KGSO

Flight Track Log - Related Links

Times and Time Zones

All times are in EDT time to prevent confusion due to time zone crossing. See the DAL8901 flight status page for this flight to view local times or setup timezone preferences in your user account.

Time Position Orientation Groundspeed Altitude Reporting Facility
EDT Latitude Longitude Course Direction KTS MPH feet Rate Location/Type
06:12PM 33.1725 -87.6175 84° East 233 268 2,000  Level Atlanta Center
06:13PM 33.1814 -87.5211 64° Northeast 270 311 5,100 3,000 Climbing Atlanta Center
06:14PM 33.2286 -87.4061 66° East 297 342 9,500 2,400 Climbing Atlanta Center
06:15PM 33.2644 -87.3106 66° East 288 331 10,800 1,860 Climbing Atlanta Center
06:16PM 33.3072 -87.1981 66° East 334 384 13,200 2,520 Climbing Atlanta Center
06:17PM 33.3539 -87.0753 65° Northeast 373 429 15,900 2,460 Climbing Atlanta Center
06:18PM 33.4008 -86.9525 67° East 393 452 18,200 2,280 Climbing Atlanta Center
06:19PM 33.4497 -86.8172 65° Northeast 415 478 20,500 2,040 Climbing Atlanta Center
06:20PM 33.4964 -86.6967 66° East 432 497 22,300 1,860 Climbing Atlanta Center
06:21PM 33.5494 -86.5514 66° East 451 519 24,200 1,560 Climbing Atlanta Center
06:22PM 33.6003 -86.4131 66° East 456 525 25,500 900 Climbing Atlanta Center
06:23PM 33.6486 -86.2822 66° East 441 507 26,000 900 Climbing Atlanta Center
06:24PM 33.6947 -86.1586 66° East 421 484 27,300 1,200 Climbing Atlanta Center
06:25PM 33.7428 -86.0272 67° East 416 479 28,500 1,380 Climbing Atlanta Center
06:26PM 33.7908 -85.8911 64° Northeast 421 484 30,100 2,040 Climbing Atlanta Center
06:27PM 33.8492 -85.7472 67° East 426 490 32,600 1,920 Climbing Atlanta Center
06:28PM 33.8947 -85.6156 66° East 421 484 34,000 660 Climbing Atlanta Center
06:29PM 33.9444 -85.4786 66° East 434 499 34,000  Level Atlanta Center
06:30PM 33.9897 -85.3542 67° East 439 505 34,000 2,460 Level Atlanta Center
06:31PM 34.0392 -85.2144 67° East 450 518 39,000 1,380 Climbing Atlanta Center
06:32PM 34.0864 -85.0797 67° East 450 518 36,800 -720 Descending Atlanta Center
06:33PM 34.1333 -84.9447 67° East 436 502 37,600 900 Climbing Atlanta Center
06:34PM 34.1822 -84.8072 67° East 436 502 38,700 660 Climbing Atlanta Center
06:35PM 34.2353 -84.6544 67° East 436 502 39,000 120 Climbing Atlanta Center
06:36PM 34.2839 -84.5139 67° East 436 502 39,000  Level Atlanta Center
06:37PM 34.3344 -84.3708 68° East 448 516 39,000  Level Atlanta Center
06:38PM 34.3806 -84.2300 67° East 448 516 39,000  Level Atlanta Center
06:39PM 34.4308 -84.0867 68° East 448 516 39,000 -180 Level Atlanta Center
06:40PM 34.4789 -83.9431 68° East 453 521 38,700 -660 Descending Atlanta Center
06:41PM 34.5225 -83.8119 67° East 453 521 37,700 -1,200 Descending Atlanta Center
06:42PM 34.5722 -83.6681 68° East 453 521 36,300 -1,500 Descending Atlanta Center
06:43PM 34.6197 -83.5239 67° East 458 527 34,800 -1,320 Descending Atlanta Center
06:44PM 34.6753 -83.3644 72° East 458 527 33,800 -960 Descending Atlanta Center
06:45PM 34.7119 -83.2250 72° East 467 537 32,900 -960 Descending Atlanta Center
06:46PM 34.7506 -83.0781 73° East 467 537 31,900 -960 Descending Atlanta Center
06:47PM 34.7931 -82.9106 74° East 467 537 31,000 -960 Descending Atlanta Center
06:48PM 34.8289 -82.7608 72° East 460 529 30,000 -1,020 Descending Atlanta Center
06:49PM 34.8692 -82.6083 73° East 465 535 29,000 -960 Descending Atlanta Center
06:50PM 34.9069 -82.4558 74° East 465 535 28,100 -960 Descending Atlanta Center
06:51PM 34.9442 -82.2928 73° East 470 541 27,100 -600 Descending Atlanta Center
06:52PM 34.9797 -82.1528 73° East 475 547 27,000 -60 Descending Atlanta Center
06:53PM 35.0169 -81.9997 50° Northeast 480 552 27,000  Level Atlanta Center
06:54PM 35.1086 -81.8681 32° Northeast 467 537 27,000 -420 Level Atlanta Center
06:55PM 35.2197 -81.7836 31° Northeast 461 531 26,200 -900 Descending Atlanta Center
06:56PM 35.3289 -81.7044 17° North 456 525 25,200 -1,020 Descending Atlanta Center
06:57PM 35.4531 -81.6575 17° North 456 525 24,200 -1,080 Descending Atlanta Center
06:58PM 35.5711 -81.6133 18° North 451 519 23,100 -1,260 Descending Atlanta Center
06:59PM 35.6892 -81.5661 35° Northeast 445 512 21,700 -1,380 Descending Atlanta Center
07:00PM 35.7814 -81.4867 45° Northeast 445 512 20,400 -1,260 Descending Atlanta Center
07:01PM 35.8689 -81.3789 51° Northeast 438 504 19,200 -1,080 Descending Atlanta Center
07:02PM 35.9436 -81.2661 67° East 432 497 18,300 -1,800 Descending Atlanta Center
07:03PM 35.9942 -81.1156 68° East 432 497 15,600 -2,700 Descending Atlanta Center
07:04PM 36.0369 -80.9831 68° East 415 478 13,000 -2,340 Descending Atlanta Center
07:05PM 36.0794 -80.8531 68° East 410 472 11,000 -1,020 Descending Atlanta Center
07:06PM 36.1200 -80.7306 88° East 394 453 11,000  Level Atlanta Center
07:07PM 36.1228 -80.5967 109° East 384 442 11,000 -180 Level Atlanta Center
07:08PM 36.0903 -80.4825 124° Southeast 384 442 10,700 -420 Descending Atlanta Center
07:09PM 36.0350 -80.3822 123° Southeast 369 425 10,200 -1,140 Descending Atlanta Center
07:10PM 35.9842 -80.2844 63° Northeast 332 382 8,500 -1,620 Descending Atlanta Center
07:11PM 36.0172 -80.2058 44° Northeast 247 284 7,000 -1,020 Descending Atlanta Center
07:12PM 36.0736 -80.1392 45° Northeast 248 285 6,500 -540 Descending Atlanta Center
07:13PM 36.1236 -80.0775 101° East 258 297 6,000 -540 Descending Atlanta Center
07:22PM 36.1000 -79.9333 101° East  Level FlightAware Approximate